Location: Piotrkow Trybunalski
(51.4000°N, 19.6830°E)
Time: 09:48:08
(UTC+01:00)

BlueWalker 3 - Pass Details

Date: 02 December 2022
Orbit: 499 x 517 km, 53.2° (Epoch: 29 January)

Event Time Altitude Azimuth Distance (km) Brightness Sun altitude
Rises 16:55:46 0° 265° (W) 2,632 7.3 -11.8°
Reaches altitude 10° 16:57:59 10° 268° (W) 1,742 6.0 -12.2°
Maximum altitude 17:01:55 70° 352° (N) 550 2.0 -12.7°
Enters shadow 17:04:21 22° 73° (ENE) 1,162 3.1 -13.1°
